Location: Wien
(48.2082°N, 16.3738°E)
Time: 00:30:13
(UTC+02:00)

MOZHAYETS 4 - Pass Details

Date: 28 March 2019
Orbit: 663 x 679 km, 98.0° (Epoch: 17 April)

Event Time Altitude Azimuth Distance (km) Brightness Sun altitude
Exits shadow 00:17:16 12° 39° (NE) 2,003 10.7 -38.9°
Drops below altitude 10° 00:18:01 10° 30° (NNE) 2,114 10.9 -38.9°
Sets 00:21:28 0° 3° (N) 3,038 12.0 -38.8°
